Time,TemperatureF,DewpointF,PressureIn,WindDirection,WindDirectionDegrees,WindSpeedMPH,WindSpeedGustMPH,Humidity,HourlyPrecipIn,Conditions,Clouds,dailyrainin,SolarRadiationWatts/m^2,SoftwareType,DateUTC
2013-01-17 00:02:00,35.0,35.0,-100.00,NW,324,3.0,7.0,100,0.01,,,0.29,0.000000,,2013-01-17 06:02:00,
2013-01-17 00:33:00,35.0,35.0,-100.00,NW,304,4.0,9.0,100,0.00,,,0.28,0.000000,,2013-01-17 06:33:00,
2013-01-17 00:42:00,35.0,35.0,-100.00,NW,304,4.0,9.0,100,0.00,,,0.28,0.000000,,2013-01-17 06:42:00,
2013-01-17 00:53:00,35.0,35.0,-100.00,NW,304,4.0,9.0,100,0.00,,,0.28,0.000000,,2013-01-17 06:53:00,
2013-01-17 01:02:00,35.0,35.0,-100.00,NW,304,4.0,9.0,100,0.00,,,0.28,0.000000,,2013-01-17 07:02:00,
2013-01-17 01:33:00,34.0,34.0,-100.00,NW,321,4.0,12.0,99,0.00,,,-99.99,0.000000,,2013-01-17 07:33:00,
2013-01-17 01:43:00,34.0,34.0,-100.00,NW,321,4.0,12.0,99,0.00,,,-99.99,0.000000,,2013-01-17 07:43:00,
2013-01-17 01:52:00,34.0,34.0,-100.00,NW,321,4.0,12.0,99,0.00,,,-99.99,0.000000,,2013-01-17 07:52:00,
2013-01-17 02:02:00,34.0,34.0,-100.00,NW,321,4.0,12.0,99,0.00,,,-99.99,0.000000,,2013-01-17 08:02:00,
2013-01-17 02:32:00,34.0,34.0,-100.00,NW,315,3.0,13.0,100,0.01,,,0.29,0.000000,,2013-01-17 08:32:00,
2013-01-17 02:44:00,34.0,34.0,-100.00,NW,315,3.0,13.0,100,0.01,,,0.29,0.000000,,2013-01-17 08:44:00,
2013-01-17 02:53:00,34.0,34.0,-100.00,NW,315,3.0,13.0,100,0.01,,,0.29,0.000000,,2013-01-17 08:53:00,
2013-01-17 03:02:00,34.0,34.0,-100.00,NW,315,3.0,13.0,100,0.01,,,0.29,0.000000,,2013-01-17 09:02:00,
2013-01-17 03:33:00,33.0,33.0,-100.00,NNW,327,3.0,9.0,100,0.02,,,0.31,0.000000,,2013-01-17 09:33:00,
2013-01-17 03:43:00,33.0,33.0,-100.00,NNW,327,3.0,9.0,100,0.02,,,0.31,0.000000,,2013-01-17 09:43:00,
2013-01-17 03:52:00,33.0,33.0,-100.00,NNW,327,3.0,9.0,100,0.02,,,0.31,0.000000,,2013-01-17 09:52:00,
2013-01-17 04:02:00,33.0,33.0,-100.00,NNW,327,3.0,9.0,100,0.02,,,0.31,0.000000,,2013-01-17 10:02:00,
2013-01-17 04:33:00,33.0,33.0,-100.00,NNW,336,5.0,17.0,100,0.01,,,0.32,0.000000,,2013-01-17 10:33:00,
2013-01-17 04:43:00,33.0,33.0,-100.00,NNW,336,5.0,17.0,100,0.01,,,0.32,0.000000,,2013-01-17 10:43:00,
2013-01-17 04:53:00,33.0,33.0,-100.00,NNW,336,5.0,17.0,100,0.01,,,0.32,0.000000,,2013-01-17 10:53:00,
2013-01-17 05:02:00,33.0,33.0,-100.00,NNW,336,5.0,17.0,100,0.01,,,0.32,0.000000,,2013-01-17 11:02:00,
2013-01-17 05:33:00,32.0,32.0,-100.00,NW,326,3.0,12.0,98,0.01,,,0.32,0.000000,,2013-01-17 11:33:00,
2013-01-17 05:43:00,32.0,32.0,-100.00,NW,326,3.0,12.0,98,0.01,,,0.32,0.000000,,2013-01-17 11:43:00,
2013-01-17 05:53:00,32.0,32.0,-100.00,NW,326,3.0,12.0,98,0.01,,,0.32,0.000000,,2013-01-17 11:53:00,
2013-01-17 06:02:00,32.0,32.0,-100.00,NW,326,3.0,12.0,98,0.01,,,0.32,0.000000,,2013-01-17 12:02:00,
2013-01-17 06:33:00,33.0,33.0,-100.00,NW,318,3.0,10.0,99,0.00,,,0.29,0.000000,,2013-01-17 12:33:00,
2013-01-17 06:43:00,33.0,33.0,-100.00,NW,318,3.0,10.0,99,0.00,,,0.29,0.000000,,2013-01-17 12:43:00,
2013-01-17 06:53:00,33.0,33.0,-100.00,NW,318,3.0,10.0,99,0.00,,,0.29,0.000000,,2013-01-17 12:53:00,
2013-01-17 07:03:00,33.0,33.0,-100.00,NW,318,3.0,10.0,99,0.00,,,0.29,0.000000,,2013-01-17 13:03:00,
2013-01-17 07:33:00,33.0,33.0,-100.00,NNW,337,4.0,10.0,99,0.00,,,0.24,1.000000,,2013-01-17 13:33:00,
2013-01-17 07:43:00,33.0,33.0,-100.00,NNW,337,4.0,10.0,99,0.00,,,0.24,1.000000,,2013-01-17 13:43:00,
2013-01-17 07:53:00,33.0,33.0,-100.00,NNW,337,4.0,10.0,99,0.00,,,0.24,1.000000,,2013-01-17 13:53:00,
2013-01-17 08:03:00,33.0,33.0,-100.00,NNW,337,4.0,10.0,99,0.00,,,0.24,1.000000,,2013-01-17 14:03:00,
2013-01-17 08:33:00,34.0,34.0,-100.00,WNW,302,2.0,10.0,98,0.01,,,0.20,28.000000,,2013-01-17 14:33:00,
2013-01-17 08:43:00,34.0,34.0,-100.00,WNW,302,2.0,10.0,98,0.01,,,0.20,28.000000,,2013-01-17 14:43:00,
2013-01-17 08:53:00,34.0,34.0,-100.00,WNW,302,2.0,10.0,98,0.01,,,0.20,28.000000,,2013-01-17 14:53:00,
2013-01-17 09:03:00,34.0,34.0,-100.00,WNW,302,2.0,10.0,98,0.01,,,0.20,28.000000,,2013-01-17 15:03:00,
2013-01-17 09:33:00,37.0,35.0,-100.00,NNW,339,4.0,9.0,94,0.00,,,0.20,95.000000,,2013-01-17 15:33:00,
2013-01-17 09:43:00,37.0,35.0,-100.00,NNW,339,4.0,9.0,94,0.00,,,0.20,95.000000,,2013-01-17 15:43:00,
2013-01-17 09:53:00,37.0,35.0,-100.00,NNW,339,4.0,9.0,94,0.00,,,0.20,95.000000,,2013-01-17 15:53:00,
2013-01-17 10:02:00,37.0,35.0,-100.00,NNW,339,4.0,9.0,94,0.00,,,0.20,95.000000,,2013-01-17 16:02:00,
2013-01-17 10:34:00,39.0,35.0,-100.00,NNW,348,6.0,16.0,87,0.00,,,0.14,193.000000,,2013-01-17 16:34:00,
2013-01-17 10:44:00,39.0,35.0,-100.00,NNW,348,6.0,16.0,87,0.00,,,0.14,193.000000,,2013-01-17 16:44:00,
2013-01-17 10:53:00,39.0,35.0,-100.00,NNW,348,6.0,16.0,87,0.00,,,0.14,193.000000,,2013-01-17 16:53:00,
2013-01-17 11:03:00,39.0,35.0,-100.00,NNW,348,6.0,16.0,87,0.00,,,0.14,193.000000,,2013-01-17 17:03:00,
2013-01-17 11:33:00,43.0,35.0,-100.00,NNW,340,6.0,14.0,74,0.00,,,0.12,351.000000,,2013-01-17 17:33:00,
2013-01-17 11:43:00,43.0,35.0,-100.00,NNW,340,6.0,14.0,74,0.00,,,0.12,351.000000,,2013-01-17 17:43:00,
2013-01-17 11:53:00,43.0,35.0,-100.00,NNW,340,6.0,14.0,74,0.00,,,0.12,351.000000,,2013-01-17 17:53:00,
2013-01-17 12:03:00,43.0,35.0,-100.00,NNW,340,6.0,14.0,74,0.00,,,0.12,351.000000,,2013-01-17 18:03:00,
2013-01-17 12:34:00,48.0,36.0,-100.00,NNW,337,5.0,15.0,63,0.00,,,0.10,523.000000,,2013-01-17 18:34:00,
2013-01-17 12:44:00,48.0,36.0,-100.00,NNW,337,5.0,15.0,63,0.00,,,0.10,523.000000,,2013-01-17 18:44:00,
2013-01-17 12:53:00,48.0,36.0,-100.00,NNW,337,5.0,15.0,63,0.00,,,0.10,523.000000,,2013-01-17 18:53:00,
2013-01-17 13:03:00,48.0,36.0,-100.00,NNW,337,5.0,15.0,63,0.00,,,0.10,523.000000,,2013-01-17 19:03:00,
2013-01-17 13:33:00,50.0,34.0,-100.00,NNW,327,5.0,17.0,53,0.00,,,0.09,560.000000,,2013-01-17 19:33:00,
2013-01-17 13:43:00,50.0,34.0,-100.00,NNW,327,5.0,17.0,53,0.00,,,0.09,560.000000,,2013-01-17 19:43:00,
2013-01-17 13:53:00,50.0,34.0,-100.00,NNW,327,5.0,17.0,53,0.00,,,0.09,560.000000,,2013-01-17 19:53:00,
2013-01-17 14:03:00,50.0,34.0,-100.00,NNW,327,5.0,17.0,53,0.00,,,0.09,560.000000,,2013-01-17 20:03:00,
2013-01-17 14:33:00,51.0,34.0,-100.00,North,355,6.0,18.0,53,0.00,,,0.09,492.000000,,2013-01-17 20:33:00,
2013-01-17 14:43:00,51.0,34.0,-100.00,North,355,6.0,18.0,53,0.00,,,0.09,492.000000,,2013-01-17 20:43:00,
2013-01-17 14:54:00,51.0,34.0,-100.00,North,355,6.0,18.0,53,0.00,,,0.09,492.000000,,2013-01-17 20:54:00,
2013-01-17 15:03:00,51.0,34.0,-100.00,North,355,6.0,18.0,53,0.00,,,0.09,492.000000,,2013-01-17 21:03:00,
2013-01-17 15:34:00,51.0,34.0,-100.00,NNW,337,8.0,18.0,53,0.00,,,0.09,307.000000,,2013-01-17 21:34:00,
2013-01-17 15:43:00,51.0,34.0,-100.00,NNW,337,8.0,18.0,53,0.00,,,0.09,307.000000,,2013-01-17 21:43:00,
2013-01-17 15:53:00,51.0,34.0,-100.00,NNW,337,8.0,18.0,53,0.00,,,0.09,307.000000,,2013-01-17 21:53:00,
2013-01-17 16:03:00,51.0,34.0,-100.00,NNW,337,8.0,18.0,53,0.00,,,0.09,307.000000,,2013-01-17 22:03:00,
2013-01-17 16:33:00,50.0,33.0,-100.00,North,4,6.0,17.0,52,0.00,,,0.09,239.000000,,2013-01-17 22:33:00,
2013-01-17 16:43:00,50.0,33.0,-100.00,North,4,6.0,17.0,52,0.00,,,0.09,239.000000,,2013-01-17 22:43:00,
2013-01-17 16:53:00,50.0,33.0,-100.00,North,4,6.0,17.0,52,0.00,,,0.09,239.000000,,2013-01-17 22:53:00,
2013-01-17 17:03:00,50.0,33.0,-100.00,North,4,6.0,17.0,52,0.00,,,0.09,239.000000,,2013-01-17 23:03:00,
2013-01-17 17:33:00,47.0,34.0,-100.00,North,353,3.0,14.0,60,0.00,,,0.09,21.000000,,2013-01-17 23:33:00,
2013-01-17 17:43:00,47.0,34.0,-100.00,North,353,3.0,14.0,60,0.00,,,0.09,21.000000,,2013-01-17 23:43:00,
2013-01-17 17:53:00,47.0,34.0,-100.00,North,353,3.0,14.0,60,0.00,,,0.09,21.000000,,2013-01-17 23:53:00,
2013-01-17 18:03:00,47.0,34.0,-100.00,North,353,3.0,14.0,60,0.00,,,0.09,21.000000,,2013-01-18 00:03:00,
2013-01-17 18:33:00,43.0,36.0,-100.00,NNW,333,2.0,12.0,77,0.00,,,0.09,3.000000,,2013-01-18 00:33:00,
2013-01-17 18:43:00,43.0,36.0,-100.00,NNW,333,2.0,12.0,77,0.00,,,0.09,3.000000,,2013-01-18 00:43:00,
2013-01-17 18:53:00,43.0,36.0,-100.00,NNW,333,2.0,12.0,77,0.00,,,0.09,3.000000,,2013-01-18 00:53:00,
2013-01-17 19:03:00,43.0,36.0,-100.00,NNW,333,2.0,12.0,77,0.00,,,0.09,3.000000,,2013-01-18 01:03:00,
2013-01-17 19:33:00,42.0,34.0,-100.00,NNW,347,2.0,6.0,74,0.00,,,0.08,0.000000,,2013-01-18 01:33:00,
2013-01-17 19:43:00,42.0,34.0,-100.00,NNW,347,2.0,6.0,74,0.00,,,0.08,0.000000,,2013-01-18 01:43:00,
2013-01-17 19:53:00,42.0,34.0,-100.00,NNW,347,2.0,6.0,74,0.00,,,0.08,0.000000,,2013-01-18 01:53:00,
2013-01-17 20:02:00,42.0,34.0,-100.00,NNW,347,2.0,6.0,74,0.00,,,0.08,0.000000,,2013-01-18 02:02:00,
2013-01-17 20:33:00,40.0,35.0,-100.00,NNW,341,2.0,4.0,81,0.00,,,0.08,0.000000,,2013-01-18 02:33:00,
2013-01-17 20:43:00,40.0,35.0,-100.00,NNW,341,2.0,4.0,81,0.00,,,0.08,0.000000,,2013-01-18 02:43:00,
2013-01-17 20:53:00,40.0,35.0,-100.00,NNW,341,2.0,4.0,81,0.00,,,0.08,0.000000,,2013-01-18 02:53:00,
2013-01-17 21:02:00,40.0,35.0,-100.00,NNW,341,2.0,4.0,81,0.00,,,0.08,0.000000,,2013-01-18 03:02:00,
2013-01-17 21:33:00,38.0,35.0,-100.00,WNW,302,0.0,4.0,90,0.00,,,0.08,0.000000,,2013-01-18 03:33:00,
2013-01-17 21:43:00,38.0,35.0,-100.00,WNW,302,0.0,4.0,90,0.00,,,0.08,0.000000,,2013-01-18 03:43:00,
2013-01-17 21:53:00,38.0,35.0,-100.00,WNW,302,0.0,4.0,90,0.00,,,0.08,0.000000,,2013-01-18 03:53:00,
2013-01-17 22:02:00,38.0,35.0,-100.00,WNW,302,0.0,4.0,90,0.00,,,0.08,0.000000,,2013-01-18 04:02:00,
2013-01-17 22:33:00,36.0,34.0,-100.00,WNW,289,0.0,3.0,94,0.00,,,0.07,0.000000,,2013-01-18 04:33:00,
2013-01-17 22:42:00,36.0,34.0,-100.00,WNW,289,0.0,3.0,94,0.00,,,0.07,0.000000,,2013-01-18 04:42:00,
2013-01-17 22:53:00,36.0,34.0,-100.00,WNW,289,0.0,3.0,94,0.00,,,0.07,0.000000,,2013-01-18 04:53:00,
2013-01-17 23:03:00,36.0,34.0,-100.00,WNW,289,0.0,3.0,94,0.00,,,0.07,0.000000,,2013-01-18 05:03:00,
2013-01-17 23:33:00,38.0,35.0,-100.00,NNW,335,3.0,7.0,89,0.00,,,0.06,0.000000,,2013-01-18 05:33:00,
2013-01-17 23:43:00,38.0,35.0,-100.00,NNW,335,3.0,7.0,89,0.00,,,0.06,0.000000,,2013-01-18 05:43:00,
2013-01-17 23:53:00,38.0,35.0,-100.00,NNW,335,3.0,7.0,89,0.00,,,0.06,0.000000,,2013-01-18 05:53:00,